Location: ??????????
(44.2167°N, 135.5333°E)
Time: 14:55:58
(UTC+00:00)

COSMOS 2406 - Pass Details

Date: 15 June 2025
Orbit: 844 x 860 km, 71.0° (Epoch: 15 July)

Event Time Altitude Azimuth Distance (km) Brightness Sun altitude
Rises 16:54:31 0° 338° (NNW) 3,443 7.0 -17.4°
Reaches altitude 10° 16:57:06 10° 345° (NNW) 2,504 6.3 -17.2°
Maximum altitude 17:02:37 45° 58° (ENE) 1,153 4.3 -16.7°
Drops below altitude 10° 17:08:07 10° 131° (SE) 2,491 5.5 -16.2°
Sets 17:10:40 0° 137° (SE) 3,423 6.2 -16.0°
